Regional Weather Roundup
Issued by NWS

Home | Current Version | Previous Version | Text Only | Print | Product List | Glossary Off
Versions: 1 2 3 4 5 6 7 8 9 10 11 12 13 14 15 16 17 18 19 20 21 22 23 24 25 26 27 28 29 30 31 32 33 34 35 36 37 38 39 40 41 42 43 44 45 46 47 48 49 50

000
ASUS43 KMKX 191400
RWRWI

WISCONSIN REGIONAL WEATHER ROUNDUP
NATIONAL WEATHER SERVICE MILWAUKEE/SULLIVAN WI
900 AM CDT SAT APR 19 2014

NOTE: "FAIR" INDICATES FEW OR NO CLOUDS BELOW 12,000 FEET WITH NO
SIGNIFICANT WEATHER AND/OR OBSTRUCTIONS TO VISIBILITY.

WIZ001-002-006>008-014>016-023>028-191500-
NORTHWEST WISCONSIN

CITY           SKY/WX    TMP DP  RH WIND       PRES   REMARKS
SUPERIOR ARPT  LGT RAIN  35  32  90 NE5       30.16S WCI  31
ASHLAND        CLOUDY    36  26  67 VRB5      30.20F WCI  32
HAYWARD        CLOUDY    38  22  52 SE23G36   30.15F WCI  27
SIREN          CLOUDY    39  26  59 S18G29    30.12S WCI  29
RICE LAKE      MOSUNNY   38  23  55 SE23G33   30.22F WCI  28
LADYSMITH      MOSUNNY   38  25  58 SE15G23   30.27S WCI  30
EAU CLAIRE     NOT AVBL
MENOMONIE      MOSUNNY   40  25  55 SE21      30.23S WCI  30
NEW RICHMOND   CLOUDY    41  29  63 SE15G21   30.16F
OSCEOLA        MOSUNNY   41  31  68 SE15G25   30.17F
$$

WIZ003>005-009-010-017-018-191500-
NORTH CENTRAL WISCONSIN

CITY           SKY/WX    TMP DP  RH WIND       PRES   REMARKS
WOODRUFF       SUNNY     37  26  67 S17G28    30.26F WCI  27
RHINELANDER    SUNNY     35  22  58 SE14G23   30.29F WCI  26
EAGLE RIVER    MOSUNNY   33  21  60 SE9G16    30.29F WCI  26
LAND O LAKES   PTSUNNY   34  22  62 SE10G20   30.29F WCI  26
PHILLIPS       PTSUNNY   35  23  62 SE16      30.24F WCI  25
TOMAHAWK       SUNNY     34  24  66 SE6G18    30.29F WCI  29
MEDFORD        SUNNY     34  26  71 SE16G23   30.27F WCI  23
MERRILL        SUNNY     34  26  70 CALM      30.32F
$$

WIZ029-030-035-036-043>047-191500-
CENTRAL WISCONSIN

CITY           SKY/WX    TMP DP  RH WIND       PRES   REMARKS
WAUSAU         SUNNY     37  26  64 SE22G30   30.31F WCI  26
MOSINEE        SUNNY     36  28  75 E14G22    30.34F WCI  27
MARSHFIELD     SUNNY     38  26  62 SE23G29   30.30F WCI  27
STEVENS POINT  SUNNY     35  26  71 SE14      30.36F WCI  25
WAUPACA        SUNNY     39  28  65 SE13      30.40F WCI  32
WAUTOMA        NOT AVBL
WISC RAPIDS    SUNNY     40  24  53 SE16G23   30.35F WCI  31
CAMP DOUGLAS   NOT AVBL
$$

WIZ011>013-019>022-031-037>040-048>050-191500-
NORTHEAST WISCONSIN

CITY           SKY/WX    TMP DP  RH WIND       PRES   REMARKS
ANTIGO         SUNNY     33  26  77 SE17G24   30.35F WCI  22
STURGEON BAY   MOSUNNY   36  28  75 SE8       30.44F WCI  29
GREEN BAY      MOSUNNY   38  31  76 SE14      30.42F WCI  30
MANITOWOC      NOT AVBL
APPLETON       MOSUNNY   37  28  70 SE13      30.41F WCI  29
CLINTONVILLE   SUNNY     36  30  80 SE8       30.41F WCI  29
OSHKOSH        SUNNY     38  28  67 SE13G18   30.38F WCI  30
$$

WIZ032>034-041-042-053>061-191500-
SOUTHWEST WISCONSIN

CITY           SKY/WX    TMP DP  RH WIND       PRES   REMARKS
LA CROSSE      SUNNY     46  23  40 SE15      30.29F
SPARTA         SUNNY     41  22  47 E9        30.32F
VIROQUA        FAIR      39  25  58 SE16      30.28F WCI  30
BOSCOBEL       MOSUNNY   45  24  43 E9        30.33F
PRAIRIE DU CHI MOSUNNY   42  25  50 SE9       30.32S
PLATTEVILLE    FAIR      40  29  65 E15       30.33S WCI  32
$$

WIZ056-057-062-063-064-067-068-191500-
SOUTH CENTRAL WISCONSIN

CITY           SKY/WX    TMP DP  RH WIND       PRES   REMARKS
BARABOO/DELLS  SUNNY     40  26  56 E12       30.34F WCI  33
LONE ROCK      NOT AVBL
WATERTOWN      SUNNY     39  29  68 E12       30.38S WCI  32
MADISON        MOSUNNY   42  29  59 SE12      30.37F
MIDDLETON      FAIR      41  29  61 E9        30.36F
MONROE         SUNNY     41  30  65 E14       30.34F
JANESVILLE     SUNNY     43  28  56 SE15      30.36S
$$

WIZ051-052-058>065-066-070>072-191500-
SOUTHEAST WISCONSIN

CITY           SKY/WX    TMP DP  RH WIND       PRES   REMARKS
MILWAUKEE      MOSUNNY   38  30  73 E12       30.44R WCI  30
WAUKESHA       MOSUNNY   37  30  75 E13       30.40F WCI  29
MILWAUKEE/TIMM SUNNY     37  28  70 E9G17     30.43S WCI  31
RACINE         SUNNY     39  31  72 E13       30.44R WCI  31
BURLINGTON     SUNNY     38  31  76 E12       30.40R WCI  31
KENOSHA        SUNNY     40  32  73 E12       30.41R WCI  33
FOND DU LAC    SUNNY     39  27  62 SE18      30.39F WCI  30
SHEBOYGAN      MOSUNNY   37  29  72 SE10      30.42F WCI  30
WEST BEND      SUNNY     36  28  75 E12G17    30.41F WCI  27
JUNEAU         SUNNY     38  26  63 E14       30.39F WCI  29
$$

LSZ147-162-191500-
LAKE SUPERIOR

STATION/POSITION TIME  TEMP    WIND        PRES    WAVE
                       AIR SEA DIR/SP/G            HT/PER
                 (UTC) (F)     (DEG/KT/KT) (MB)    (FT/S)
DEVILS ISLAND    1300   34     110/ 15/ 18 1025.1F
PORT WING        1340   35      70/  3/  7 1022.0F
SAXON HARBOR     1300          180/  6/ 11 1023.4R
$$

LMZ867-665-643>646-191500-
LAKE MICHIGAN

STATION/POSITION TIME  TEMP    WIND        PRES    WAVE
                       AIR SEA DIR/SP/G            HT/PER
                 (UTC) (F)     (DEG/KT/KT) (MB)    (FT/S)
NORTHPORT PIER   1300   33     100/ 10/ 11 1031.5F
SISTER BAY       1309   37     130/ 11/ 18   N/A
KEWAUNEE LAKESHO 1300   34     110/  6/ 10 1031.6S
SHEBOYGAN LAKESH 1300   35      90/ 10/ 11 1031.9R
PORT WASHINGTON  1340   37      80/  9/ 10 1031.2R
MILWAUKEE LAKESH 1300   36      70/  8/ 10   N/A
KENOSHA   LAKESH 1300   36      70/ 15/ 17   N/A
$$

TC  - TEMPERATURE IN CELSIUS
VSB - VISIBILITY IN STATUTE MILES
WCI - WIND CHILL INDEX
HX  - HEAT INDEX




USA.gov is the U.S. government's official web portal to all federal, state and local government web resources and services.